Location: Unspecified
(51.0950°N, 12.9690°E)
Time: 22:50:16
(UTC+00:00)

Cosmos 220 Rocket - Pass Details

Date: 28 October 2021
Orbit: 575 x 615 km, 74.0° (Epoch: 01 December)

Event Time Altitude Azimuth Distance (km) Brightness Sun altitude
Rises 17:33:19 0° 212° (SSW) 2,867 7.9 -16.8°
Reaches altitude 10° 17:35:35 10° 215° (SW) 1,963 7.1 -17.2°
Maximum altitude 17:39:57 64° 297° (WNW) 678 4.4 -17.9°
Drops below altitude 10° 17:44:17 10° 19° (NNE) 1,956 6.4 -18.6°
Enters shadow 17:45:02 - 21° (NNE) 2,249 6.7 -18.7°
